User: anonymous   Login
Location: Salamanca
(40.9670°N, 5.6500°W)
Time: 23:10:55
(UTC+01:00)
Language:

Cosmos 1633 Rocket - Orbit

View from above orbital plane
View from above orbital plane
View from above satellite
View from above satellite

Ground track
Ground track

The orbit data is extracted from the following two-line orbital elements,

1 15593U 85020B   15086.32271764  .00000552  00000-0  63486-4 0  9993
2 15593 082.5366 303.1877 0011170 197.3476 283.5174 14.83986152623807
Epoch (UTC): 27 March 2015 07:44:42
Eccentricity: 0.0011170
inclination: 82.5366°
perigee height: 609 km
apogee height: 624 km
right ascension of ascending node: 303.1877°
argument of perigee: 197.3476°
revolutions per day: 14.83986152
mean anomaly at epoch: 283.5174°
orbit number at epoch: 62380

The dashed part of the orbit path shows where the satellite is in the earth's shadow,  

DLR